Location: St. Louis
(38.6270°N, 90.1994°W)
Time: 01:34:03
(UTC-06:00)

Vanguard 2 - Pass Details

Date: 09 December 2021
Orbit: 553 x 2936 km, 32.9° (Epoch: 16 January)

Event Time Altitude Azimuth Distance (km) Brightness Sun altitude
Rises 15:31:44 0° 267° (W) 3,033 11.5 10.0°
Reaches altitude 10° 15:33:58 10° 256° (WSW) 2,289 11.4 9.7°
Maximum altitude 15:38:40 32° 193° (SSW) 1,611 10.1 9.0°
Drops below altitude 10° 15:45:40 10° 134° (SE) 3,451 10.8 7.9°
Sets 15:49:51 0° 126° (SE) 4,865 11.5 7.3°
